Location: Arboucave
(43.6130°N, 0.4343°W)
Time: 06:13:30
(UTC+00:00)

SPOT 1/Viking Rocket - Pass Details

Date: 17 November 2025
Orbit: 773 x 788 km, 98.2° (Epoch: 04 December)

Event Time Altitude Azimuth Distance (km) Brightness Sun altitude
Rises 17:11:03 0° 131° (SE) 3,257 6.5 -6.9°
Reaches altitude 10° 17:13:42 10° 119° (ESE) 2,336 5.6 -7.4°
Maximum altitude 17:17:52 26° 64° (ENE) 1,528 4.5 -8.1°
Drops below altitude 10° 17:22:04 10° 10° (N) 2,356 5.8 -8.8°
Sets 17:24:44 0° 358° (N) 3,291 6.6 -9.2°
